Charlevoix, MI

3:51 PM EST on November 22, 2017 (GMT -0500)
Charlevoix Municipal

Weather History for KCVX - March, 2015

Change the Weather History Date:

Thursday, March 19, 2015

  Actual Average Record
Temperature  
Mean Temperature 28 °F -  
Max Temperature 38 °F 40 °F 80 °F (2012)
Min Temperature 17 °F 21 °F 17 °F (2015)
Degree Days  
Heating Degree Days 38    
Moisture  
Dew Point 14 °F    
Average Humidity 58    
Maximum Humidity 85    
Minimum Humidity 28    
Precipitation  
Precipitation 0.00 in - - ()
Sea Level Pressure  
Sea Level Pressure 30.30 in    
Wind  
Wind Speed 3 mph (East)    
Max Wind Speed 10 mph    
Max Gust Speed -    
Visibility 10 miles    
Events      
Averages and records for this station are not official NWS values.
T = Trace of Precipitation, MM = Missing Value Source: NWS Daily Summary

Daily Weather History Graph

Daily Weather History Graph

Search for Another Location

Airport or City:

Trip Planner

Search our weather history database for the weather conditions in past years. The results will help you decide how hot, cold, wet, or windy it might be!

Date:

Astronomy

Mar. 19, 2015 Rise Set
Actual Time 7:46 AM EDT 7:51 PM EDT
Civil Twilight 7:17 AM EDT 8:21 PM EDT
Nautical Twilight 6:42 AM EDT 8:56 PM EDT
Astronomical Twilight 6:07 AM EDT 9:31 PM EDT
Moon 7:12 AM EDT (3/19) 7:17 PM EDT (3/19)
Length of Visible Light 13h 04m
Length of Day
12h 05m
Waning Crescent, 1% of the Moon is Illuminated
Mar 19
Waning Crescent
Mar 20
New
Mar 27
First Quarter
Apr 4
Full
Apr 11
Last Quarter

Hourly Weather History & Observations

Time (EDT) Temp. Windchill Dew Point Humidity Pressure Visibility Wind Dir Wind Speed Gust Speed Precip Events Conditions
12:15 AM 24.6 °F 20.3 °F 14.0 °F 64% 30.34 in 10.0 mi North 3.5 mph - N/A   Clear
12:35 AM 24.8 °F 16.9 °F 13.1 °F 61% 30.34 in 10.0 mi North 6.9 mph - N/A   Clear
12:55 AM 24.4 °F 18.6 °F 13.1 °F 62% 30.34 in 10.0 mi North 4.6 mph - N/A   Clear
1:15 AM 23.9 °F 19.5 °F 13.8 °F 65% 30.34 in 10.0 mi North 3.5 mph - N/A   Clear
1:35 AM 23.7 °F - 13.5 °F 65% 30.34 in 10.0 mi Calm Calm - N/A   Clear
1:55 AM 23.5 °F 19.1 °F 14.0 °F 67% 30.34 in 10.0 mi ENE 3.5 mph - N/A   Clear
2:15 AM 23.2 °F - 13.5 °F 66% 30.34 in 10.0 mi Calm Calm - N/A   Clear
2:35 AM 21.9 °F - 14.0 °F 72% 30.34 in 10.0 mi Calm Calm - N/A   Clear
2:55 AM 20.3 °F - 14.9 °F 80% 30.34 in 10.0 mi Calm Calm - N/A   Clear
3:15 AM 20.1 °F - 14.4 °F 78% 30.35 in 10.0 mi Calm Calm - N/A   Clear
3:35 AM 19.2 °F - 14.4 °F 81% 30.35 in 10.0 mi Calm Calm - N/A   Clear
3:55 AM 18.9 °F - 14.9 °F 85% 30.36 in 10.0 mi Calm Calm - N/A   Clear
4:15 AM 18.9 °F - 14.4 °F 83% 30.36 in 10.0 mi Calm Calm - N/A   Clear
4:35 AM 19.0 °F - 14.5 °F 83% 30.36 in 10.0 mi Calm Calm - N/A   Clear
4:55 AM 18.5 °F - 14.4 °F 84% 30.35 in 10.0 mi Calm Calm - N/A   Clear
5:15 AM 18.5 °F - 14.0 °F 83% 30.36 in 10.0 mi Calm Calm - N/A   Clear
5:35 AM 17.8 °F - 14.0 °F 85% 30.36 in 10.0 mi Calm Calm - N/A   Clear
5:55 AM 19.0 °F 13.9 °F 14.4 °F 82% 30.36 in 10.0 mi ESE 3.5 mph - N/A   Clear
6:15 AM 19.2 °F 14.1 °F 13.8 °F 80% 30.36 in 10.0 mi ESE 3.5 mph - N/A   Clear
6:35 AM 19.0 °F 13.9 °F 13.5 °F 79% 30.36 in 10.0 mi ESE 3.5 mph - N/A   Clear
6:55 AM 18.7 °F 11.9 °F 13.5 °F 80% 30.36 in 10.0 mi ESE 4.6 mph - N/A   Clear
7:14 AM 17.8 °F 12.5 °F 12.6 °F 80% 30.37 in 10.0 mi ESE 3.5 mph - N/A   Clear
7:35 AM 18.9 °F 10.8 °F 11.8 °F 74% 30.36 in 10.0 mi ESE 5.8 mph - N/A   Clear
7:55 AM 19.4 °F 12.8 °F 10.8 °F 69% 30.37 in 10.0 mi SE 4.6 mph - N/A   Clear
8:14 AM 19.9 °F 13.4 °F 10.0 °F 65% 30.36 in 10.0 mi ESE 4.6 mph - N/A   Clear
8:35 AM 20.8 °F 14.4 °F 9.5 °F 62% 30.37 in 10.0 mi SSE 4.6 mph - N/A   Clear
8:55 AM 22.5 °F 15.1 °F 8.6 °F 55% 30.37 in 10.0 mi SE 5.8 mph - N/A   Clear
9:14 AM 24.1 °F 15.2 °F 6.4 °F 47% 30.36 in 10.0 mi ESE 8.1 mph - N/A   Clear
9:35 AM 25.5 °F 16.9 °F 5.2 °F 42% 30.37 in 10.0 mi SSE 8.1 mph - N/A   Clear
9:55 AM 27.1 °F 18.9 °F 4.5 °F 38% 30.37 in 10.0 mi SSE 8.1 mph - N/A   Clear
10:14 AM 28.4 °F 19.7 °F 4.1 °F 36% 30.37 in 10.0 mi SSE 9.2 mph - N/A   Clear
10:35 AM 30.0 °F 24.1 °F 4.3 °F 34% 30.36 in 10.0 mi SE 5.8 mph - N/A   Clear
10:55 AM 31.1 °F 26.4 °F 3.7 °F 31% 30.36 in 10.0 mi SE 4.6 mph - N/A   Clear
11:14 AM 32.0 °F 27.5 °F 2.8 °F 29% 30.36 in 10.0 mi South 4.6 mph - N/A   Clear
11:35 AM 32.4 °F 27.9 °F 2.3 °F 28% 30.35 in 10.0 mi SE 4.6 mph - N/A   Clear
11:55 AM 32.9 °F 24.7 °F 2.5 °F 28% 30.35 in 10.0 mi ESE 10.4 mph - N/A   Clear
12:14 PM 33.8 °F 25.8 °F 3.2 °F 28% 30.34 in 10.0 mi SSE 10.4 mph - N/A   Clear
12:35 PM 34.3 °F 27.7 °F 4.3 °F 28% 30.34 in 10.0 mi SE 8.1 mph - N/A   Clear
12:55 PM 34.7 °F 28.1 °F 7.3 °F 32% 30.32 in 10.0 mi East 8.1 mph - N/A   Clear
1:14 PM 36.0 °F 30.3 °F 9.0 °F 33% 30.32 in 10.0 mi East 6.9 mph - N/A   Clear
1:35 PM 36.0 °F 31.1 °F 8.2 °F 32% 30.32 in 10.0 mi East 5.8 mph - N/A   Clear
1:55 PM 36.5 °F 32.7 °F 8.6 °F 31% 30.31 in 10.0 mi ENE 4.6 mph - N/A   Clear
2:14 PM 38.1 °F 33.7 °F 14.2 °F 38% 30.30 in 10.0 mi North 5.8 mph - N/A   Clear
2:35 PM 36.5 °F 33.9 °F 16.2 °F 44% 30.30 in 10.0 mi NNW 3.5 mph - N/A   Clear
2:55 PM 36.9 °F 32.2 °F 17.8 °F 46% 30.29 in 10.0 mi NW 5.8 mph - N/A   Clear
3:14 PM 36.7 °F 32.9 °F 14.9 °F 41% 30.28 in 10.0 mi North 4.6 mph - N/A   Clear
3:35 PM 37.2 °F 34.7 °F 13.3 °F 37% 30.27 in 10.0 mi North 3.5 mph - N/A   Clear
3:55 PM 37.2 °F 34.7 °F 12.4 °F 36% 30.27 in 10.0 mi North 3.5 mph - N/A   Clear
4:14 PM 37.2 °F 34.7 °F 13.5 °F 38% 30.27 in 10.0 mi North 3.5 mph - N/A   Scattered Clouds
4:35 PM 37.4 °F 34.9 °F 13.6 °F 38% 30.27 in 10.0 mi NE 3.5 mph - N/A   Overcast
4:55 PM 37.4 °F 33.8 °F 20.3 °F 50% 30.26 in 10.0 mi NE 4.6 mph - N/A   Overcast
5:14 PM 36.5 °F - 21.0 °F 54% 30.26 in 10.0 mi Calm Calm - N/A   Overcast
5:35 PM 35.6 °F 32.8 °F 20.3 °F 54% 30.25 in 10.0 mi NNE 3.5 mph - N/A   Mostly Cloudy
5:55 PM 36.0 °F - 21.2 °F 55% 30.24 in 10.0 mi Calm Calm - N/A   Overcast
6:14 PM 35.8 °F - 16.5 °F 46% 30.24 in 10.0 mi Calm Calm - N/A   Overcast
6:35 PM 36.5 °F - 18.1 °F 47% 30.22 in 10.0 mi Calm Calm - N/A   Overcast
6:55 PM 36.1 °F - 18.1 °F 48% 30.22 in 10.0 mi Calm Calm - N/A   Overcast
7:14 PM 34.2 °F - 22.1 °F 61% 30.22 in 10.0 mi Calm Calm - N/A   Overcast
7:35 PM 32.9 °F - 23.5 °F 68% 30.21 in 10.0 mi Calm Calm - N/A   Mostly Cloudy
7:55 PM 32.9 °F - 23.5 °F 68% 30.20 in 10.0 mi Calm Calm - N/A   Mostly Cloudy
8:14 PM 32.0 °F - 22.3 °F 67% 30.20 in 10.0 mi Calm Calm - N/A   Scattered Clouds
8:35 PM 31.3 °F - 23.2 °F 72% 30.20 in 10.0 mi Calm Calm - N/A   Mostly Cloudy
8:55 PM 30.9 °F - 23.4 °F 74% 30.19 in 10.0 mi Calm Calm - N/A   Mostly Cloudy
9:14 PM 30.7 °F - 23.4 °F 74% 30.19 in 10.0 mi Calm Calm - N/A   Scattered Clouds
9:35 PM 30.9 °F - 22.8 °F 72% 30.19 in 10.0 mi Calm Calm - N/A   Mostly Cloudy
9:55 PM 30.2 °F - 21.7 °F 71% 30.19 in 10.0 mi Calm Calm - N/A   Mostly Cloudy
10:14 PM 29.3 °F 25.6 °F 21.7 °F 73% 30.18 in 10.0 mi SSE 3.5 mph - N/A   Scattered Clouds
10:35 PM 29.7 °F 26.1 °F 22.5 °F 75% 30.17 in 10.0 mi SE 3.5 mph - N/A   Scattered Clouds
10:55 PM 31.1 °F 27.7 °F 21.4 °F 67% 30.17 in 10.0 mi ESE 3.5 mph - N/A   Scattered Clouds
11:15 PM 30.4 °F 24.5 °F 22.1 °F 71% 30.15 in 10.0 mi ESE 5.8 mph - N/A   Scattered Clouds
11:35 PM 31.1 °F 26.4 °F 21.0 °F 66% 30.14 in 10.0 mi ESE 4.6 mph - N/A   Clear
11:55 PM 31.6 °F 26.0 °F 17.8 °F 57% 30.14 in 10.0 mi SSE 5.8 mph - N/A   Clear